Regional Weather Roundup
Issued by NWS Albany, NY

Home | Current Version | Previous Version | Text Only | Print | Product List | Glossary On
Versions: 1 2 3 4 5 6 7 8 9 10 11 12 13 14 15 16 17 18 19 20 21 22 23 24 25 26 27 28 29 30 31 32 33 34 35 36 37 38 39 40 41 42 43 44 45 46 47 48 49 50
000
ASUS41 KALY 050410
RWRALY

NEW YORK STATE HOURLY WEATHER ROUNDUP
NATIONAL WEATHER SERVICE ALBANY NY
1200 AM EDT TUE MAY 05 2015

NOTE: "FAIR" INDICATES FEW OR NO CLOUDS BELOW 12,000 FEET WITH NO
SIGNIFICANT WEATHER AND/OR NO OBSTRUCTIONS TO VISIBILITY.

NYZ032-033-038>043-046>054-057>066-NYZ062>081-050500-
EAST


CITY           SKY/WX    TMP DP  RH WIND       PRES   REMARKS
ALBANY         CLOUDY    72  47  40 W13       30.09R
GLENS FALLS    CLOUDY    72  49  44 SW7       30.05R
POUGHKEEPSIE   MOCLDY    76  42  29 SW9       30.10R
NEWBURGH       PTCLDY    73  45  35 SW7       30.13S
MONTGOMERY     MOCLDY    72  45  37 SW10      30.11S
WHITE PLAINS   CLEAR     70  41  34 VRB3      30.15S
ISLIP          CLEAR     62  46  55 SW15G24   30.17R
NEW YORK CITY  PTCLDY    73  41  31 SW15      30.15S
CENTRAL PARK   CLEAR     72  42  34 SW12G20   30.19R
$$

NYZ005>009-017-018-044>046-055-056-050500-
CENTRAL


CITY           SKY/WX    TMP DP  RH WIND       PRES   REMARKS
FULTON         CLOUDY    58  51  78 NW6       30.16R
SYRACUSE       MOCLDY    63  53  70 W5        30.15R
ROME           CLOUDY    61  53  75 NW8       30.15R
ELMIRA         CLOUDY    68  55  63 NW5       30.16R
BINGHAMTON     CLOUDY    66  51  58 NW13      30.17R
MONTICELLO     CLOUDY    70  45  40 W3        30.17R
$$

NYZ026>034-041>043-050500-
NORTH


CITY           SKY/WX    TMP DP  RH WIND       PRES   REMARKS
WATERTOWN      CLOUDY    55  52  89 SW3       30.14R FOG
FORT DRUM      NOT AVBL
MASSENA        MOCLDY    60  56  86 W7        30.09R
SARANAC LAKE   CLOUDY    57  55  93 W7        30.08R
PLATTSBURGH    CLOUDY    62  57  83 CALM      30.05R
$$

NYZ001>004-010>016-019>021-050500-
WEST


CITY           SKY/WX    TMP DP  RH WIND       PRES   REMARKS
NIAGARA FALLS  PTCLDY    52  48  86 S3        30.17R
BUFFALO        MOCLDY    52  49  89 SW9       30.18R
DUNKIRK        MOCLDY    60  56  86 SW8       30.19R
JAMESTOWN      MOCLDY    57  54  88 CALM      30.22S
WELLSVILLE     CLOUDY    60  54  80 W8        30.22S
ROCHESTER      MOCLDY    63  55  75 W7        30.17R
PENN YAN       CLOUDY    67  53  61 W7        30.17R
$$

             KEY
       WCI = WIND CHILL INDEX
       VSB = VISIBILITY
       HX  = HEAT INDEX
$$



USA.gov is the U.S. government's official web portal to all federal, state and local government web resources and services.